Regional Weather Roundup
Issued by NWS Sterling, VA

Home | Current Version | Previous Version | Graphics & Text | Print | Product List | Glossary On
Versions: 1 2 3 4 5 6 7 8 9 10 11 12 13 14 15 16 17 18 19 20 21 22 23 24 25 26 27 28 29 30 31 32 33 34 35 36 37 38 39 40 41 42 43 44 45 46 47 48 49 50
000
ASUS41 KLWX 301010
RWRLWX

REGIONAL WEATHER ROUNDUP
NATIONAL WEATHER SERVICE BALTIMORE MD/WASHINGTON DC
600 AM EDT TUE JUN 30 2015

Note: "FAIR" indicates few or no clouds below 12,000 feet
with no significant weather and/or obstructions to visibility.
 TC=TEMPERATURE CELSIUS

 * =Non NWS site. Station does not report precipitation (e.g. rain,
    snow, etc.), thunder, or fog.

DCZ001-MDZ009-015-VAZ040>042-051-053>054-301100-
WASHINGTON METRO

CITY           SKY/WX    TMP DP  RH WIND       PRES   REMARKS
WASHINGTON NAT PTCLDY    72  68  87 S7        29.90S
DULLES         MOCLDY    63  62  97 SE3       29.90S
ANDREWS AFB    CLEAR     68  68  99 SE10      29.90S
FT BELVOIR     CLEAR     63  62  96 CALM      29.90S FOG
QUANTICO       CLEAR     73  67  81 S14       29.90S
COLLEGE PARK*  CLEAR     64  64 100 CALM      29.91R
LEESBURG*      MOCLDY    66  64  94 CALM      29.91S
MANASSAS*      PTCLDY    64  63  94 CALM      29.90S
GAITHERSBURG*  PTCLDY    64  61  88 CALM      29.95R

$$

MDZ006>007-011-014-301100-
BALTIMORE METRO

CITY           SKY/WX    TMP DP  RH WIND       PRES   REMARKS
BWI AIRPORT    PTCLDY    64  61  90 CALM      29.90S
MD SCIENCE CTR   N/A     72  67  84 MISG      29.91S
ANNAPOLIS      CLEAR     73  69  87 SE14      29.90S
FORT MEADE*    CLEAR     59  59 100 CALM      29.93S

$$

MDZ012-015-019>023-301100-
MARYLAND EASTERN SHORE

CITY           SKY/WX    TMP DP  RH WIND       PRES   REMARKS
OCEAN CITY     CLEAR     72  67  84 VRB5      29.96R
SALISBURY      CLEAR     66  65  96 SE6       29.95R
BAY BRIDGE AP*   N/A     70  68  94 SE9       29.92S
CAMBRIDGE*     CLEAR     72  68  88 SE8       29.93S
EASTON*        CLEAR     72  72 100 S12       29.97R

$$

MDZ017>025-301100-
SOUTHERN MARYLAND

CITY           SKY/WX    TMP DP  RH WIND       PRES   REMARKS
PATUXENT RIVER MOCLDY    73  71  93 S5        29.92R
ST INIGOES     MOCLDY    76  71  85 S9        29.92R
LEONARDTOWN*   MOCLDY    72  68  88 SE3       29.94S

$$

MDZ003>005-301100-
NORTH CENTRAL MARYLAND

CITY           SKY/WX    TMP DP  RH WIND       PRES   REMARKS
FREDERICK*     MOCLDY    63  63 100 CALM      29.93R
HAGERSTOWN APT CLOUDY    70  60  70 S7        29.88R
WESTMINSTER*   PTCLDY    68  64  88 S5        29.92R

$$

MDZ501>502-301100-
WESTERN MARYLAND

CITY           SKY/WX    TMP DP  RH WIND       PRES   REMARKS
OAKLAND*       CLOUDY    59 N/A N/A S7        29.95R
CUMBERLAND*    CLOUDY    64  64 100 CALM      29.91S

$$

VAZ025>031-301100-
SHENANDOAH VALLEY

CITY           SKY/WX    TMP DP  RH WIND       PRES   REMARKS
WINCHESTER*    PTCLDY    64  61  88 CALM      29.88S
FRONT ROYAL*   FAIR      61  59  94 CALM      29.88R
LURAY*         FAIR      63  63 100 CALM      29.89S
NEW MARKET*    FAIR      61  60  95 CALM      29.88S
STAUNTON*      PTCLDY    62  59  91 CALM      29.93R
WAYNESBORO*    CLOUDY    62  59  90 CALM      29.91S

$$

WVZ021-048>050-054>055-301100-
EASTERN WEST VIRGINIA PANHANDLE

CITY           SKY/WX    TMP DP  RH WIND       PRES   REMARKS
MARTINSBURG    CLOUDY    66  61  84 CALM      29.88S
PETERSBURG*    PTCLDY    61  58  89 CALM      29.89R

$$

VAZ036>039-050-301100-
CENTRAL FOOTHILLS

CITY           SKY/WX    TMP DP  RH WIND       PRES   REMARKS
CHARLOTTESVILL CLEAR     62  60  93 CALM      29.89S
CULPEPER*        N/A     59  59  99 CALM      29.91S
ORANGE*        CLEAR     61  61 100 CALM      29.91S FOG
GORDONSVILLE*  FAIR      61  59  94 MISG      29.90S FOG
WARRENTON*     FAIR      62  62 100 CALM      29.90S

$$

VAZ055>057-301100-
NORTH AND CENTRAL PIEDMONT

CITY           SKY/WX    TMP DP  RH WIND       PRES   REMARKS
FREDERICKSBRG* CLEAR     70  70  98 S6        29.89S
STAFFORD*      CLEAR     61  59  95 CALM      29.94S

$$

NCZ024-NYZ072-PAZ021-071-VAZ022-071-301100-
OTHER REGIONAL OBSERVATIONS

CITY           SKY/WX    TMP DP  RH WIND       PRES   REMARKS
NEW YORK CITY  MOCLDY    68  58  70 CALM      29.99R
PHILADELPHIA   MOCLDY    69  63  81 SE3       29.95R
PITTSBURGH     CLOUDY    65  62  90 SW7       29.83R
ROANOKE        MOCLDY    64  62  93 W7        29.94R
RICHMOND       PTCLDY    69  67  93 SE5       29.92R
RALEIGH        PTCLDY    69  62  78 CALM      29.93S

$$

ANZ530>537-301100-
MARINE OBSERVATIONS

STATION/POSITION TIME  TEMP    WIND        PRES
                       AIR SEA DIR/SP/G
                 (UTC) (F)     (DEG/KT/KT) (MB)
THOMAS PT LIGHT  NOT AVBL
BALT KEY BRIDGE  0900   72     150/  3/  4 1012.4F
COVE POINT       0900   75     200/ 15/ 17 1013.6R
LEWISETTA        0900   74 80  180/  7/  9 1012.8R
SOLOMONS ISLAND  0900      78                N/A
PINEY POINT      0900          190/ 13/ 15   N/A

$$




USA.gov is the U.S. government's official web portal to all federal, state and local government web resources and services.